COSMOS 886 DEB

Satellite information

Favourite Embed

Satellite Type and Status

DEBRISIN ORBIT

Key statistics

Satellite COSMOS 886 DEB at a glance.

Uptime

17836

Days in orbit

Revolutions

≈ 11.5

Per day

Orbit

MEO

Medium Earth Orbit

Inclination

65.8

Latest

Satellite identification and parameters

Extended collection of information and parameters for COSMOS 886 DEB.

Object identification

Identified? True

Debris? True

Object name: COSMOS 886 DEB

International designator: 1976-126BS

Object number (NORAD): 14800

Object ID (CCSDS): 14800

Country: COMMONWEALTH OF INDEPENDENT STATES (CIS)

Current information (Y/N): Y

RCS size: MEDIUM

Orbital parameters

Period: 125.128 minutes

Inclination: 65.7533 deg

SMA: 8286.983 km

Apoapsis: 2429.99 km

Periapsis: 1387.706 km

RAAN: 69.1591 deg

Eccentricy: 0.06288679

Argument of periapsis: 161.6715 deg

Mean anomaly: 295.6925 deg

Mean motion: 11.50821871 rev/day

Mean motion (dot): -0.00000032 rev/day2

B* drag term: 0.00015016504 1/REarth

Two-line elements (TLE)

Creation date: Oct. 27, 2025, 2:46 a.m.

Reference frame: TEME

Reference center: EARTH

Epoch: Oct. 26, 2025, 1:53 p.m. UTC

TLE line 0: 0 COSMOS 886 DEB

TLE line 1: 1 14800U 76126BS 25299.57865696 -.00000032 00000-0 15017-3 0 9997

TLE line 2: 2 14800 65.7533 69.1591 0628868 161.6715 295.6925 11.50821871799917

Live tracking on map

Real-time ground track for satellite COSMOS 886 DEB.

In-orbit conjunctions

A list of the most updated potential collisions computed for object COSMOS 886 DEB.

Target Orbit TCA Probability of collision Miss distance Type
COSMOS 2248 LEO 2024-12-24 14:19:42 0.000172826 692.0 (m) PAYLOAD

Associated space launch

Second generation ASAT satellite

COSMOS 886 DEB was lifted into orbit during the mission ‘Tsiklon-2 | IS-A 4’, on board a Tsiklon-2 space rocket.

The launch took place on Dec. 27, 1976, 12:05 p.m. from 90.

For more information about the launch, click the button.

Launch to space Tsiklon-2 | IS-A 4
Tsiklon-2 | IS-A 4

Agency: N/A

Status: Launch Successful

Launch date: Dec. 27, 1976, 12:05 p.m. UTC

Rocket: Tsiklon-2

Launch pad: 90

Location: Baikonur Cosmodrome, Republic of Kazakhstan

...

Latest news about this satellite

There are no fresh news available about this satellite. Check back as we update our databases every day.


Newsletter sign-up

Weekly statistics, charts and insights to help you stay on top of the space industry.